Location: Newark
(51.0089°N, 21.5817°E)
Time: 00:36:15
(UTC+00:00)

XW-2F - Pass Details

Date: 24 February 2020
Orbit: 503 x 521 km, 97.5° (Epoch: 08 April)

Event Time Altitude Azimuth Distance (km) Brightness Sun altitude
Rises 16:43:52 0° 204° (SSW) 2,592 ? -6.9°
Reaches altitude 10° 16:46:27 10° 223° (SW) 1,714 ? -7.3°
Maximum altitude 16:49:04 18° 269° (W) 1,287 ? -7.7°
Drops below altitude 10° 16:51:42 10° 314° (NW) 1,728 ? -8.1°
Sets 16:54:19 0° 333° (NNW) 2,621 ? -8.5°
